| time (UTC) | temp C | wind direction | speed KPH | gust KPH | rain 1hr cm | rain 24hr cm | rain mn cm | humidity % | barometer mb |
| 20260507051155 | 14 | 258 | 3.2 | 6.4 | 0.00 | 0.15 | 0.00 | 96 | 1006.6 |
| 20260507050650 | 14 | 265 | 0.0 | 11.3 | 0.00 | 0.15 | 0.00 | 96 | 1006.5 |
| 20260507050152 | 14 | 271 | 1.6 | 11.3 | 0.00 | 0.15 | 0.00 | 96 | 1006.6 |
| 20260507045622 | 14 | 346 | 3.2 | 8.0 | 0.00 | 0.15 | 0.00 | 96 | 1006.6 |
| 20260507045145 | 14 | 235 | 3.2 | 12.9 | 0.00 | 0.15 | 0.00 | 96 | 1006.8 |
| 20260507044635 | 14 | 239 | 4.8 | 12.9 | 0.00 | 0.15 | 0.00 | 96 | 1006.7 |
| 20260507044127 | 14 | 234 | 3.2 | 8.0 | 0.00 | 0.15 | 0.00 | 96 | 1006.7 |
| 20260507043652 | 14 | 246 | 3.2 | 11.3 | 0.00 | 0.15 | 0.00 | 96 | 1006.6 |
| 20260507043158 | 14 | 260 | 1.6 | 11.3 | 0.00 | 0.15 | 0.00 | 96 | 1006.5 |
| 20260507042631 | 14 | 237 | 3.2 | 12.9 | 0.00 | 0.15 | 0.00 | 96 | 1006.6 |
| 20260507042153 | 14 | 259 | 1.6 | 8.0 | 0.00 | 0.15 | 0.00 | 96 | 1006.6 |
| 20260507041625 | 14 | 304 | 1.6 | 6.4 | 0.00 | 0.15 | 0.00 | 96 | 1006.4 |
| 20260507041134 | 14 | 297 | 1.6 | 11.3 | 0.00 | 0.15 | 0.00 | 96 | 1006.6 |
| 20260507040624 | 14 | 240 | 4.8 | 14.5 | 0.00 | 0.15 | 0.00 | 96 | 1006.7 |
| 20260507040130 | 14 | 256 | 3.2 | 14.5 | 0.00 | 0.15 | 0.15 | 96 | 1006.7 |
| 20260507035624 | 14 | 211 | 4.8 | 12.9 | 0.00 | 0.15 | 0.15 | 96 | 1006.6 |
| 20260507035134 | 14 | 259 | 1.6 | 9.7 | 0.00 | 0.15 | 0.15 | 96 | 1006.6 |
| 20260507034648 | 14 | 261 | 3.2 | 9.7 | 0.00 | 0.15 | 0.15 | 96 | 1006.6 |
| 20260507034137 | 14 | 229 | 3.2 | 11.3 | 0.00 | 0.15 | 0.15 | 96 | 1006.6 |
| 20260507033625 | 14 | 250 | 3.2 | 17.7 | 0.00 | 0.15 | 0.15 | 96 | 1006.6 |
| 20260507033131 | 14 | 225 | 8.0 | 19.3 | 0.00 | 0.15 | 0.15 | 96 | 1006.9 |
| 20260507032638 | 14 | 208 | 6.4 | 19.3 | 0.00 | 0.15 | 0.15 | 96 | 1006.8 |
| 20260507032126 | 13 | 200 | 8.0 | 16.1 | 0.00 | 0.15 | 0.15 | 96 | 1006.7 |
| 20260507031639 | 13 | 262 | 4.8 | 19.3 | 0.00 | 0.15 | 0.15 | 96 | 1006.5 |
| 20260507031143 | 13 | 204 | 11.3 | 19.3 | 0.00 | 0.15 | 0.15 | 96 | 1006.4 |
| 20260507030630 | 13 | 218 | 8.0 | 17.7 | 0.00 | 0.15 | 0.15 | 96 | 1006.6 |
| 20260507030139 | 13 | 198 | 8.0 | 16.1 | 0.00 | 0.15 | 0.15 | 96 | 1006.5 |
| 20260507025651 | 13 | 224 | 6.4 | 17.7 | 0.00 | 0.15 | 0.15 | 96 | 1006.4 |
| 20260507025138 | 13 | 247 | 4.8 | 17.7 | 0.00 | 0.15 | 0.15 | 96 | 1006.5 |
| 20260507024624 | 13 | 242 | 6.4 | 17.7 | 0.00 | 0.15 | 0.15 | 96 | 1006.5 |
| 20260507024128 | 13 | 242 | 6.4 | 17.7 | 0.00 | 0.15 | 0.15 | 96 | 1006.4 |
| 20260507023632 | 13 | 211 | 8.0 | 14.5 | 0.00 | 0.15 | 0.15 | 96 | 1006.4 |
| 20260507023121 | 13 | 213 | 6.4 | 14.5 | 0.00 | 0.15 | 0.15 | 96 | 1006.5 |
| 20260507022631 | 13 | 240 | 6.4 | 14.5 | 0.00 | 0.15 | 0.15 | 96 | 1006.5 |
| 20260507022136 | 13 | 243 | 4.8 | 16.1 | 0.00 | 0.15 | 0.15 | 96 | 1006.6 |
| 20260507021652 | 13 | 192 | 9.7 | 17.7 | 0.00 | 0.15 | 0.15 | 96 | 1006.6 |
| 20260507021150 | 13 | 242 | 4.8 | 17.7 | 0.00 | 0.15 | 0.15 | 96 | 1006.5 |
| 20260507020639 | 13 | 180 | 8.0 | 17.7 | 0.00 | 0.15 | 0.15 | 96 | 1006.3 |
| 20260507020132 | 13 | 209 | 8.0 | 17.7 | 0.00 | 0.15 | 0.15 | 96 | 1006.4 |
| 20260507015622 | 13 | 224 | 11.3 | 17.7 | 0.00 | 0.15 | 0.15 | 96 | 1006.6 |
| 20260507015151 | 13 | 205 | 9.7 | 17.7 | 0.00 | 0.15 | 0.15 | 96 | 1006.6 |
| 20260507014635 | 13 | 229 | 8.0 | 16.1 | 0.00 | 0.15 | 0.15 | 96 | 1006.6 |
| 20260507014125 | 13 | 192 | 9.7 | 19.3 | 0.00 | 0.15 | 0.15 | 96 | 1006.7 |
| 20260507013651 | 13 | 219 | 11.3 | 19.3 | 0.00 | 0.15 | 0.15 | 96 | 1006.6 |
| 20260507013122 | 13 | 203 | 9.7 | 19.3 | 0.00 | 0.15 | 0.15 | 96 | 1006.7 |
| 20260507012626 | 13 | 166 | 11.3 | 22.5 | 0.00 | 0.15 | 0.15 | 96 | 1006.8 |
| 20260507012150 | 13 | 218 | 6.4 | 22.5 | 0.00 | 0.15 | 0.15 | 96 | 1006.9 |
| 20260507011635 | 13 | 210 | 11.3 | 19.3 | 0.00 | 0.15 | 0.15 | 96 | 1007.0 |
| 20260507011125 | 13 | 226 | 8.0 | 19.3 | 0.00 | 0.15 | 0.15 | 96 | 1007.0 |
| 20260507010632 | 13 | 231 | 6.4 | 19.3 | 0.00 | 0.15 | 0.15 | 96 | 1006.9 |
| 20260507010122 | 13 | 216 | 12.9 | 20.9 | 0.00 | 0.15 | 0.15 | 96 | 1007.0 |
| 20260507005628 | 13 | 217 | 8.0 | 17.7 | 0.00 | 0.15 | 0.15 | 96 | 1007.0 |
| 20260507005148 | 13 | 219 | 11.3 | 19.3 | 0.00 | 0.15 | 0.15 | 96 | 1007.0 |
| 20260507004636 | 13 | 228 | 11.3 | 19.3 | 0.00 | 0.15 | 0.15 | 95 | 1007.0 |
| 20260507004124 | 13 | 229 | 8.0 | 16.1 | 0.00 | 0.15 | 0.15 | 95 | 1007.0 |
| 20260507003618 | 13 | 173 | 6.4 | 22.5 | 0.00 | 0.15 | 0.15 | 95 | 1006.9 |
| 20260507003123 | 13 | 242 | 14.5 | 20.9 | 0.00 | 0.15 | 0.15 | 95 | 1006.9 |
| 20260507002633 | 13 | 210 | 12.9 | 25.7 | 0.03 | 0.15 | 0.15 | 95 | 1006.8 |
| 20260507002155 | 13 | 223 | 11.3 | 22.5 | 0.03 | 0.15 | 0.15 | 95 | 1006.8 |
| 20260507001623 | 13 | 238 | 12.9 | 24.1 | 0.03 | 0.15 | 0.15 | 95 | 1006.9 |
| 20260507001136 | 13 | 197 | 14.5 | 29.0 | 0.03 | 0.15 | 0.15 | 95 | 1006.9 |
| 20260507000625 | 13 | 215 | 6.4 | 27.4 | 0.03 | 0.15 | 0.15 | 95 | 1006.8 |
| 20260507000148 | 13 | 205 | 9.7 | 27.4 | 0.03 | 0.15 | 0.15 | 95 | 1006.8 |
| 20260506235622 | 13 | 245 | 11.3 | 25.7 | 0.03 | 0.15 | 0.15 | 95 | 1006.8 |
| 20260506235131 | 13 | 207 | 9.7 | 29.0 | 0.05 | 0.15 | 0.15 | 95 | 1006.7 |
| 20260506234621 | 13 | 210 | 12.9 | 29.0 | 0.05 | 0.15 | 0.15 | 95 | 1006.7 |
| 20260506234143 | 13 | 230 | 9.7 | 20.9 | 0.05 | 0.15 | 0.15 | 95 | 1006.6 |
| 20260506233653 | 13 | 219 | 8.0 | 22.5 | 0.05 | 0.15 | 0.15 | 95 | 1006.6 |
| 20260506233143 | 13 | 199 | 11.3 | 27.4 | 0.08 | 0.15 | 0.15 | 95 | 1006.5 |
| 20260506232634 | 13 | 219 | 8.0 | 27.4 | 0.05 | 0.13 | 0.13 | 95 | 1006.6 |
| 20260506232124 | 13 | 209 | 9.7 | 20.9 | 0.05 | 0.13 | 0.13 | 94 | 1006.7 |
| 20260506231647 | 13 | 202 | 8.0 | 20.9 | 0.05 | 0.13 | 0.13 | 94 | 1006.7 |
| 20260506231138 | 13 | 197 | 4.8 | 22.5 | 0.05 | 0.13 | 0.13 | 94 | 1006.8 |
| 20260506230624 | 13 | 228 | 6.4 | 25.7 | 0.05 | 0.13 | 0.13 | 94 | 1006.8 |
| 20260506230147 | 13 | 254 | 8.0 | 25.7 | 0.05 | 0.13 | 0.13 | 94 | 1006.9 |
| 20260506225636 | 13 | 190 | 6.4 | 22.5 | 0.05 | 0.13 | 0.13 | 94 | 1006.8 |
| 20260506225122 | 13 | 210 | 8.0 | 22.5 | 0.05 | 0.10 | 0.10 | 94 | 1006.7 |
| 20260506224648 | 13 | 180 | 4.8 | 22.5 | 0.05 | 0.10 | 0.10 | 94 | 1006.7 |
| 20260506224136 | 13 | 191 | 8.0 | 29.0 | 0.05 | 0.10 | 0.10 | 94 | 1006.6 |
| 20260506223635 | 13 | 225 | 8.0 | 22.5 | 0.03 | 0.08 | 0.08 | 94 | 1006.6 |
| 20260506223153 | 14 | 207 | 8.0 | 24.1 | 0.05 | 0.08 | 0.08 | 94 | 1006.7 |
| 20260506222700 | 14 | 192 | 11.3 | 24.1 | 0.05 | 0.08 | 0.08 | 94 | 1006.6 |
| 20260506222128 | 14 | 205 | 8.0 | 24.1 | 0.05 | 0.08 | 0.08 | 94 | 1006.7 |
| 20260506221650 | 14 | 204 | 9.7 | 24.1 | 0.05 | 0.08 | 0.08 | 93 | 1006.8 |
| 20260506221122 | 14 | 170 | 6.4 | 22.5 | 0.05 | 0.08 | 0.08 | 93 | 1006.9 |
| 20260506220641 | 14 | 360 | 11.3 | 24.1 | 0.05 | 0.08 | 0.08 | 93 | 1007.0 |
| 20260506220131 | 14 | 200 | 11.3 | 19.3 | 0.05 | 0.08 | 0.08 | 93 | 1007.1 |
| 20260506215623 | 15 | 193 | 6.4 | 22.5 | 0.05 | 0.08 | 0.08 | 92 | 1007.1 |
| 20260506215145 | 15 | 191 | 14.5 | 25.7 | 0.03 | 0.05 | 0.05 | 92 | 1007.1 |
| 20260506214636 | 15 | 212 | 11.3 | 29.0 | 0.03 | 0.05 | 0.05 | 92 | 1007.0 |
| 20260506214147 | 15 | 209 | 6.4 | 29.0 | 0.03 | 0.05 | 0.05 | 91 | 1007.1 |
| 20260506213649 | 15 | 200 | 6.4 | 33.8 | 0.03 | 0.05 | 0.05 | 91 | 1007.2 |
| 20260506213154 | 15 | 204 | 19.3 | 33.8 | 0.00 | 0.03 | 0.03 | 91 | 1007.3 |
| 20260506212645 | 15 | 237 | 14.5 | 33.8 | 0.00 | 0.03 | 0.03 | 90 | 1007.3 |
| 20260506212132 | 15 | 198 | 19.3 | 35.4 | 0.00 | 0.03 | 0.03 | 90 | 1007.2 |
| 20260506211635 | 15 | 216 | 17.7 | 35.4 | 0.00 | 0.03 | 0.03 | 90 | 1007.4 |
| 20260506211158 | 15 | 228 | 16.1 | 35.4 | 0.00 | 0.03 | 0.03 | 90 | 1007.4 |
| 20260506210627 | 15 | 242 | 9.7 | 32.2 | 0.00 | 0.03 | 0.03 | 91 | 1007.5 |
| 20260506210156 | 15 | 244 | 14.5 | 32.2 | 0.00 | 0.03 | 0.03 | 91 | 1007.5 |
| 20260506205623 | 15 | 161 | 11.3 | 33.8 | 0.00 | 0.03 | 0.03 | 91 | 1007.4 |
| 20260506205127 | 15 | 234 | 12.9 | 33.8 | 0.00 | 0.03 | 0.03 | 91 | 1007.4 |
| 20260506204652 | 15 | 222 | 16.1 | 33.8 | 0.00 | 0.03 | 0.03 | 91 | 1007.5 |
| 20260506204140 | 15 | 222 | 12.9 | 37.0 | 0.00 | 0.03 | 0.03 | 90 | 1007.6 |
| 20260506203629 | 15 | 219 | 11.3 | 37.0 | 0.03 | 0.03 | 0.03 | 90 | 1007.5 |
| 20260506203155 | 16 | 245 | 12.9 | 37.0 | 0.03 | 0.03 | 0.03 | 90 | 1007.7 |
| 20260506202645 | 16 | 232 | 9.7 | 37.0 | 0.03 | 0.03 | 0.03 | 90 | 1007.7 |
| 20260506202155 | 16 | 210 | 11.3 | 30.6 | 0.03 | 0.03 | 0.03 | 90 | 1007.7 |
| 20260506201658 | 16 | 198 | 19.3 | 37.0 | 0.03 | 0.03 | 0.03 | 89 | 1007.6 |
| 20260506201126 | 16 | 228 | 16.1 | 37.0 | 0.03 | 0.03 | 0.03 | 89 | 1007.8 |
| 20260506200650 | 16 | 198 | 17.7 | 37.0 | 0.03 | 0.03 | 0.03 | 89 | 1007.8 |
| 20260506200141 | 16 | 226 | 19.3 | 37.0 | 0.03 | 0.03 | 0.03 | 89 | 1007.9 |
| 20260506195626 | 16 | 190 | 14.5 | 40.2 | 0.03 | 0.03 | 0.03 | 88 | 1007.7 |
| 20260506195149 | 16 | 232 | 11.3 | 40.2 | 0.03 | 0.03 | 0.03 | 88 | 1007.8 |
| 20260506194656 | 16 | 218 | 20.9 | 38.6 | 0.03 | 0.03 | 0.03 | 87 | 1007.7 |
| 20260506194123 | 16 | 210 | 12.9 | 29.0 | 0.03 | 0.03 | 0.03 | 87 | 1007.8 |
| 20260506193626 | 16 | 213 | 12.9 | 30.6 | 0.00 | 0.00 | 0.00 | 85 | 1007.9 |
| 20260506193128 | 17 | 232 | 11.3 | 29.0 | 0.00 | 0.00 | 0.00 | 84 | 1007.9 |
| 20260506192651 | 17 | 225 | 6.4 | 35.4 | 0.00 | 0.00 | 0.00 | 84 | 1008.0 |
| 20260506192138 | 17 | 202 | 19.3 | 35.4 | 0.00 | 0.00 | 0.00 | 82 | 1007.9 |
| 20260506191632 | 17 | 196 | 14.5 | 38.6 | 0.00 | 0.00 | 0.00 | 81 | 1007.9 |
| 20260506191155 | 17 | 219 | 19.3 | 53.1 | 0.00 | 0.00 | 0.00 | 79 | 1008.0 |
| 20260506190700 | 18 | 219 | 20.9 | 37.0 | 0.00 | 0.00 | 0.00 | 77 | 1008.0 |
| 20260506190127 | 18 | 261 | 14.5 | 37.0 | 0.00 | 0.00 | 0.00 | 76 | 1008.0 |
| 20260506185631 | 18 | 243 | 14.5 | 37.0 | 0.00 | 0.00 | 0.00 | 75 | 1008.1 |
| 20260506185158 | 18 | 221 | 25.7 | 37.0 | 0.00 | 0.00 | 0.00 | 75 | 1008.2 |
| 20260506184640 | 18 | 198 | 19.3 | 40.2 | 0.00 | 0.00 | 0.00 | 75 | 1008.0 |
| 20260506184127 | 18 | 222 | 14.5 | 37.0 | 0.00 | 0.00 | 0.00 | 75 | 1007.9 |
| 20260506183640 | 18 | 196 | 20.9 | 46.7 | 0.00 | 0.00 | 0.00 | 74 | 1008.1 |
| 20260506183146 | 18 | 202 | 20.9 | 46.7 | 0.00 | 0.00 | 0.00 | 73 | 1008.1 |
| 20260506182632 | 18 | 236 | 19.3 | 35.4 | 0.00 | 0.00 | 0.00 | 73 | 1008.2 |
| 20260506182123 | 19 | 205 | 17.7 | 48.3 | 0.00 | 0.00 | 0.00 | 73 | 1008.3 |
| 20260506181630 | 19 | 230 | 19.3 | 33.8 | 0.00 | 0.00 | 0.00 | 72 | 1008.4 |
| 20260506181133 | 19 | 191 | 19.3 | 46.7 | 0.00 | 0.00 | 0.00 | 72 | 1008.2 |
| 20260506180624 | 19 | 224 | 24.1 | 46.7 | 0.00 | 0.00 | 0.00 | 71 | 1008.3 |
| 20260506180147 | 20 | 214 | 24.1 | 41.8 | 0.00 | 0.00 | 0.00 | 70 | 1008.3 |
| 20260506175635 | 20 | 193 | 19.3 | 41.8 | 0.00 | 0.00 | 0.00 | 71 | 1008.5 |
| 20260506175123 | 20 | 200 | 20.9 | 37.0 | 0.00 | 0.00 | 0.00 | 69 | 1008.5 |
| 20260506174641 | 20 | 167 | 11.3 | 43.5 | 0.00 | 0.00 | 0.00 | 70 | 1008.5 |
| 20260506174135 | 20 | 213 | 29.0 | 43.5 | 0.00 | 0.00 | 0.00 | 69 | 1008.6 |
| 20260506173627 | 21 | 221 | 19.3 | 48.3 | 0.00 | 0.00 | 0.00 | 68 | 1008.7 |
| 20260506173147 | 21 | 213 | 22.5 | 48.3 | 0.00 | 0.00 | 0.00 | 67 | 1008.8 |
| 20260506172624 | 21 | 165 | 17.7 | 43.5 | 0.00 | 0.00 | 0.00 | 69 | 1008.9 |
| 20260506172127 | 21 | 207 | 19.3 | 43.5 | 0.00 | 0.00 | 0.00 | 70 | 1008.9 |
| 20260506171630 | 21 | 167 | 24.1 | 56.3 | 0.00 | 0.00 | 0.00 | 68 | 1008.7 |
| 20260506171124 | 21 | 196 | 11.3 | 56.3 | 0.00 | 0.00 | 0.00 | 66 | 1008.8 |
| 20260506170633 | 21 | 169 | 20.9 | 46.7 | 0.00 | 0.00 | 0.00 | 67 | 1008.6 |
| 20260506170154 | 21 | 186 | 24.1 | 46.7 | 0.00 | 0.00 | 0.00 | 67 | 1008.6 |
| 20260506165627 | 21 | 203 | 19.3 | 45.1 | 0.00 | 0.00 | 0.00 | 69 | 1008.7 |
| 20260506165124 | 21 | 199 | 17.7 | 43.5 | 0.00 | 0.00 | 0.00 | 70 | 1008.8 |
| 20260506164627 | 21 | 238 | 19.3 | 43.5 | 0.00 | 0.00 | 0.00 | 69 | 1009.0 |
| 20260506164158 | 21 | 225 | 20.9 | 40.2 | 0.00 | 0.00 | 0.00 | 68 | 1008.9 |
| 20260506163639 | 21 | 165 | 14.5 | 33.8 | 0.00 | 0.00 | 0.00 | 68 | 1009.1 |
| 20260506163128 | 21 | 164 | 17.7 | 38.6 | 0.00 | 0.00 | 0.00 | 70 | 1009.2 |
| 20260506162630 | 21 | 180 | 20.9 | 38.6 | 0.00 | 0.00 | 0.00 | 70 | 1009.2 |
| 20260506162134 | 21 | 199 | 12.9 | 37.0 | 0.00 | 0.00 | 0.00 | 70 | 1009.4 |
| 20260506161622 | 21 | 180 | 12.9 | 32.2 | 0.00 | 0.00 | 0.00 | 69 | 1009.3 |
| 20260506161210 | 21 | 219 | 17.7 | 33.8 | 0.00 | 0.00 | 0.00 | 69 | 1009.5 |
| 20260506160621 | 21 | 216 | 12.9 | 29.0 | 0.00 | 0.00 | 0.00 | 70 | 1009.5 |
| 20260506160124 | 21 | 207 | 11.3 | 33.8 | 0.00 | 0.00 | 0.00 | 70 | 1009.5 |
| 20260506155647 | 21 | 190 | 14.5 | 38.6 | 0.00 | 0.00 | 0.00 | 70 | 1009.6 |
| 20260506155213 | 21 | 175 | 16.1 | 38.6 | 0.00 | 0.00 | 0.00 | 70 | 1009.8 |
| 20260506154640 | 21 | 204 | 16.1 | 38.6 | 0.00 | 0.00 | 0.00 | 70 | 1009.8 |
| 20260506154131 | 21 | 196 | 14.5 | 46.7 | 0.00 | 0.00 | 0.00 | 70 | 1009.8 |
| 20260506153620 | 21 | 192 | 19.3 | 46.7 | 0.00 | 0.00 | 0.00 | 69 | 1009.8 |
| 20260506153145 | 21 | 207 | 17.7 | 30.6 | 0.00 | 0.00 | 0.00 | 69 | 1009.8 |
| 20260506152642 | 21 | 219 | 16.1 | 30.6 | 0.00 | 0.00 | 0.00 | 69 | 1010.1 |
| 20260506152127 | 21 | 268 | 8.0 | 32.2 | 0.00 | 0.00 | 0.00 | 72 | 1010.1 |
| 20260506151630 | 21 | 213 | 19.3 | 38.6 | 0.00 | 0.00 | 0.00 | 70 | 1010.1 |
| 20260506151123 | 20 | 209 | 22.5 | 38.6 | 0.00 | 0.00 | 0.00 | 71 | 1010.1 |
| 20260506150633 | 20 | 213 | 17.7 | 38.6 | 0.00 | 0.00 | 0.00 | 71 | 1010.1 |
| 20260506150122 | 20 | 200 | 11.3 | 35.4 | 0.00 | 0.00 | 0.00 | 71 | 1010.3 |
| 20260506145628 | 20 | 184 | 17.7 | 35.4 | 0.00 | 0.00 | 0.00 | 71 | 1010.2 |
| 20260506145135 | 20 | 265 | 20.9 | 35.4 | 0.00 | 0.00 | 0.00 | 72 | 1010.2 |
| 20260506144625 | 20 | 201 | 16.1 | 37.0 | 0.00 | 0.00 | 0.00 | 71 | 1010.2 |
| 20260506144128 | 20 | 196 | 19.3 | 45.1 | 0.00 | 0.00 | 0.00 | 72 | 1010.1 |
| 20260506143636 | 20 | 219 | 22.5 | 41.8 | 0.00 | 0.00 | 0.00 | 71 | 1010.1 |
| 20260506143124 | 20 | 231 | 17.7 | 35.4 | 0.00 | 0.00 | 0.00 | 70 | 1010.0 |
| 20260506142627 | 20 | 220 | 22.5 | 40.2 | 0.00 | 0.00 | 0.00 | 72 | 1009.9 |
| 20260506142133 | 20 | 195 | 16.1 | 40.2 | 0.00 | 0.00 | 0.00 | 72 | 1010.0 |
| 20260506141652 | 20 | 250 | 22.5 | 40.2 | 0.00 | 0.00 | 0.00 | 71 | 1010.1 |
| 20260506141214 | 20 | 197 | 22.5 | 40.2 | 0.00 | 0.00 | 0.00 | 72 | 1010.1 |
| 20260506140641 | 20 | 225 | 22.5 | 38.6 | 0.00 | 0.00 | 0.00 | 73 | 1010.1 |
| 20260506140134 | 20 | 213 | 17.7 | 41.8 | 0.00 | 0.00 | 0.00 | 72 | 1010.0 |
| 20260506135627 | 19 | 193 | 12.9 | 41.8 | 0.00 | 0.00 | 0.00 | 73 | 1010.0 |
| 20260506135146 | 19 | 215 | 11.3 | 33.8 | 0.00 | 0.00 | 0.00 | 76 | 1009.9 |
| 20260506134653 | 18 | 171 | 11.3 | 33.8 | 0.00 | 0.00 | 0.00 | 75 | 1010.0 |
| 20260506134122 | 19 | 178 | 17.7 | 33.8 | 0.00 | 0.00 | 0.00 | 75 | 1010.1 |
| 20260506133628 | 19 | 210 | 16.1 | 32.2 | 0.00 | 0.00 | 0.00 | 75 | 1010.3 |
| 20260506133136 | 19 | 205 | 16.1 | 33.8 | 0.00 | 0.00 | 0.00 | 75 | 1010.6 |
| 20260506132621 | 18 | 160 | 6.4 | 35.4 | 0.00 | 0.00 | 0.00 | 75 | 1010.6 |
| 20260506132200 | 18 | 193 | 11.3 | 35.4 | 0.00 | 0.00 | 0.00 | 76 | 1010.5 |
| 20260506131626 | 18 | 167 | 9.7 | 29.0 | 0.00 | 0.00 | 0.00 | 77 | 1010.6 |
| 20260506131128 | 18 | 219 | 16.1 | 37.0 | 0.00 | 0.00 | 0.00 | 76 | 1010.7 |
| 20260506130635 | 18 | 143 | 19.3 | 38.6 | 0.00 | 0.00 | 0.00 | 78 | 1010.6 |
| 20260506130122 | 18 | 215 | 19.3 | 38.6 | 0.00 | 0.00 | 0.00 | 79 | 1010.6 |
| 20260506125640 | 17 | 187 | 12.9 | 25.7 | 0.00 | 0.00 | 0.00 | 79 | 1010.7 |
| 20260506125127 | 17 | 247 | 14.5 | 27.4 | 0.00 | 0.00 | 0.00 | 81 | 1010.7 |
| 20260506124622 | 17 | 211 | 12.9 | 33.8 | 0.00 | 0.00 | 0.00 | 81 | 1010.7 |
| 20260506124145 | 17 | 187 | 17.7 | 35.4 | 0.00 | 0.00 | 0.00 | 81 | 1010.7 |
| 20260506123636 | 17 | 251 | 17.7 | 35.4 | 0.00 | 0.00 | 0.00 | 81 | 1010.7 |
| 20260506123121 | 17 | 223 | 17.7 | 33.8 | 0.00 | 0.00 | 0.00 | 82 | 1010.7 |
| 20260506122645 | 17 | 232 | 19.3 | 33.8 | 0.00 | 0.00 | 0.00 | 82 | 1010.6 |
| 20260506122138 | 17 | 200 | 11.3 | 29.0 | 0.00 | 0.00 | 0.00 | 81 | 1010.6 |
| 20260506121630 | 16 | 200 | 11.3 | 37.0 | 0.00 | 0.00 | 0.00 | 84 | 1010.5 |
| 20260506121152 | 16 | 188 | 12.9 | 37.0 | 0.00 | 0.00 | 0.00 | 84 | 1010.6 |
| 20260506120630 | 16 | 169 | 9.7 | 24.1 | 0.00 | 0.00 | 0.00 | 84 | 1010.7 |
| 20260506120143 | 16 | 226 | 11.3 | 32.2 | 0.00 | 0.00 | 0.00 | 86 | 1010.9 |
| 20260506115644 | 15 | 201 | 16.1 | 32.2 | 0.00 | 0.00 | 0.00 | 87 | 1011.0 |
| 20260506115131 | 15 | 214 | 14.5 | 30.6 | 0.00 | 0.00 | 0.00 | 86 | 1011.0 |
| 20260506114715 | 15 | 168 | 12.9 | 32.2 | 0.00 | 0.00 | 0.00 | 86 | 1011.1 |
| 20260506114125 | 15 | 223 | 14.5 | 32.2 | 0.00 | 0.00 | 0.00 | 86 | 1011.0 |
| 20260506113631 | 15 | 227 | 14.5 | 25.7 | 0.00 | 0.00 | 0.00 | 87 | 1011.2 |
| 20260506113153 | 15 | 207 | 14.5 | 29.0 | 0.00 | 0.00 | 0.00 | 87 | 1011.1 |
| 20260506112623 | 15 | 235 | 14.5 | 29.0 | 0.00 | 0.00 | 0.00 | 87 | 1011.2 |
| 20260506112132 | 15 | 193 | 14.5 | 27.4 | 0.00 | 0.00 | 0.00 | 88 | 1011.2 |
| 20260506111635 | 15 | 169 | 11.3 | 29.0 | 0.00 | 0.00 | 0.00 | 89 | 1011.1 |
| 20260506111138 | 14 | 198 | 12.9 | 25.7 | 0.00 | 0.00 | 0.00 | 90 | 1011.0 |
| 20260506110705 | 14 | 196 | 11.3 | 25.7 | 0.00 | 0.00 | 0.00 | 90 | 1011.1 |
| 20260506110117 | 13 | 203 | 14.5 | 20.9 | 0.00 | 0.00 | 0.00 | 90 | 1011.1 |
| 20260506105634 | 13 | 169 | 11.3 | 20.9 | 0.00 | 0.00 | 0.00 | 90 | 1011.1 |
| 20260506105122 | 13 | 217 | 11.3 | 20.9 | 0.00 | 0.00 | 0.00 | 89 | 1011.1 |
| 20260506104629 | 13 | 203 | 11.3 | 22.5 | 0.00 | 0.00 | 0.00 | 89 | 1011.1 |
| 20260506104136 | 13 | 221 | 9.7 | 19.3 | 0.00 | 0.00 | 0.00 | 89 | 1011.1 |
| 20260506103623 | 13 | 192 | 9.7 | 29.0 | 0.00 | 0.00 | 0.00 | 90 | 1011.2 |
| 20260506103146 | 13 | 186 | 9.7 | 29.0 | 0.00 | 0.00 | 0.00 | 90 | 1011.1 |
| 20260506102632 | 13 | 202 | 12.9 | 27.4 | 0.00 | 0.00 | 0.00 | 90 | 1011.0 |
| 20260506102121 | 13 | 200 | 8.0 | 27.4 | 0.00 | 0.00 | 0.00 | 90 | 1011.1 |
| 20260506101700 | 13 | 178 | 8.0 | 19.3 | 0.00 | 0.00 | 0.00 | 89 | 1011.1 |
| 20260506101131 | 13 | 165 | 6.4 | 16.1 | 0.00 | 0.00 | 0.00 | 89 | 1011.0 |
| 20260506100638 | 13 | 180 | 6.4 | 24.1 | 0.00 | 0.00 | 0.00 | 89 | 1011.0 |
| 20260506100123 | 13 | 173 | 11.3 | 24.1 | 0.00 | 0.00 | 0.00 | 89 | 1010.8 |
| 20260506095633 | 13 | 224 | 12.9 | 24.1 | 0.00 | 0.00 | 0.00 | 89 | 1010.9 |
| 20260506095152 | 13 | 200 | 11.3 | 24.1 | 0.00 | 0.00 | 0.00 | 89 | 1010.8 |
| 20260506094626 | 13 | 192 | 9.7 | 25.7 | 0.00 | 0.00 | 0.00 | 89 | 1010.7 |
| 20260506094150 | 13 | 186 | 6.4 | 19.3 | 0.00 | 0.00 | 0.00 | 89 | 1010.7 |
| 20260506093640 | 14 | 196 | 3.2 | 22.5 | 0.00 | 0.00 | 0.00 | 89 | 1010.8 |
| 20260506093129 | 14 | 184 | 12.9 | 22.5 | 0.00 | 0.00 | 0.00 | 88 | 1010.7 |
| 20260506092633 | 14 | 204 | 12.9 | 20.9 | 0.00 | 0.00 | 0.00 | 88 | 1010.8 |
| 20260506092138 | 14 | 215 | 8.0 | 24.1 | 0.00 | 0.00 | 0.00 | 88 | 1010.7 |
| 20260506091626 | 14 | 202 | 11.3 | 24.1 | 0.00 | 0.00 | 0.00 | 88 | 1010.7 |
| 20260506091132 | 14 | 188 | 8.0 | 24.1 | 0.00 | 0.00 | 0.00 | 88 | 1010.8 |
| 20260506090639 | 14 | 209 | 12.9 | 20.9 | 0.00 | 0.00 | 0.00 | 88 | 1010.8 |
| 20260506090125 | 14 | 242 | 11.3 | 30.6 | 0.00 | 0.00 | 0.00 | 88 | 1010.9 |
| 20260506085704 | 14 | 202 | 14.5 | 30.6 | 0.00 | 0.00 | 0.00 | 88 | 1011.0 |
| 20260506085129 | 14 | 273 | 11.3 | 25.7 | 0.00 | 0.00 | 0.00 | 87 | 1011.0 |
| 20260506084639 | 14 | 179 | 17.7 | 25.7 | 0.00 | 0.00 | 0.00 | 87 | 1011.0 |
| 20260506084149 | 14 | 243 | 11.3 | 24.1 | 0.00 | 0.00 | 0.00 | 87 | 1011.0 |
| 20260506083652 | 14 | 229 | 9.7 | 24.1 | 0.00 | 0.00 | 0.00 | 87 | 1011.1 |
| 20260506083142 | 14 | 196 | 11.3 | 25.7 | 0.00 | 0.00 | 0.00 | 87 | 1011.1 |
| 20260506082632 | 14 | 253 | 8.0 | 25.7 | 0.00 | 0.00 | 0.00 | 87 | 1011.0 |
| 20260506082122 | 14 | 251 | 9.7 | 22.5 | 0.00 | 0.00 | 0.00 | 87 | 1011.0 |
| 20260506081644 | 14 | 174 | 11.3 | 25.7 | 0.00 | 0.00 | 0.00 | 87 | 1011.0 |
| 20260506081134 | 14 | 213 | 11.3 | 25.7 | 0.00 | 0.00 | 0.00 | 87 | 1011.1 |
| 20260506080640 | 14 | 242 | 9.7 | 22.5 | 0.00 | 0.00 | 0.00 | 86 | 1011.0 |
| 20260506080143 | 14 | 205 | 8.0 | 22.5 | 0.00 | 0.00 | 0.00 | 86 | 1011.0 |
| 20260506073140 | 15 | 233 | 11.3 | 27.4 | 0.00 | 0.00 | 0.00 | 85 | 1010.9 |
| 20260506072627 | 15 | 163 | 11.3 | 30.6 | 0.00 | 0.00 | 0.00 | 85 | 1010.9 |
| 20260506072120 | 15 | 183 | 16.1 | 30.6 | 0.00 | 0.00 | 0.00 | 85 | 1010.9 |
| 20260506071643 | 15 | 230 | 12.9 | 27.4 | 0.00 | 0.00 | 0.00 | 85 | 1010.9 |
| 20260506071129 | 15 | 194 | 12.9 | 27.4 | 0.00 | 0.00 | 0.00 | 85 | 1010.8 |
| 20260506070621 | 15 | 198 | 14.5 | 30.6 | 0.00 | 0.00 | 0.00 | 85 | 1010.8 |
| 20260506070147 | 15 | 210 | 16.1 | 30.6 | 0.00 | 0.00 | 0.00 | 85 | 1010.8 |
| 20260506062132 | 15 | 225 | 11.3 | 27.4 | 0.00 | 0.00 | 0.00 | 83 | 1010.8 |
| 20260506061637 | 15 | 213 | 14.5 | 27.4 | 0.00 | 0.00 | 0.00 | 83 | 1010.8 |
| 20260506061140 | 15 | 223 | 11.3 | 30.6 | 0.00 | 0.00 | 0.00 | 82 | 1010.8 |
| 20260506060627 | 15 | 206 | 9.7 | 30.6 | 0.00 | 0.00 | 0.00 | 82 | 1010.8 |
| 20260506060134 | 15 | 238 | 11.3 | 29.0 | 0.00 | 0.00 | 0.00 | 82 | 1010.8 |